Year,Month,Day,Hour,Minute,Value (Times are PST for temperature in C)
2015,06,29,00,00,19.70
2015,06,29,00,01,19.70
2015,06,29,00,02,19.70
2015,06,29,00,03,19.70
2015,06,29,00,04,19.60
2015,06,29,00,05,19.60
2015,06,29,00,06,19.60
2015,06,29,00,07,19.60
2015,06,29,00,08,19.60
2015,06,29,00,09,19.60
2015,06,29,00,10,19.60
2015,06,29,00,11,19.60
2015,06,29,00,12,19.60
2015,06,29,00,13,19.60
2015,06,29,00,14,19.60
2015,06,29,00,15,19.60
2015,06,29,00,16,19.60
2015,06,29,00,17,19.60
2015,06,29,00,18,19.60
2015,06,29,00,19,19.60
2015,06,29,00,20,19.60
2015,06,29,00,21,19.60
2015,06,29,00,22,19.60
2015,06,29,00,23,19.60
2015,06,29,00,24,19.60
2015,06,29,00,25,19.60
2015,06,29,00,26,19.60
2015,06,29,00,27,19.60
2015,06,29,00,28,19.60
2015,06,29,00,29,19.60
2015,06,29,00,30,19.60
2015,06,29,00,31,19.60
2015,06,29,00,32,19.60
2015,06,29,00,33,19.60
2015,06,29,00,34,19.60
2015,06,29,00,35,19.60
2015,06,29,00,36,19.60
2015,06,29,00,37,19.60
2015,06,29,00,38,19.70
2015,06,29,00,39,19.70
2015,06,29,00,40,19.70
2015,06,29,00,41,19.70
2015,06,29,00,42,19.70
2015,06,29,00,43,19.70
2015,06,29,00,44,19.70
2015,06,29,00,45,19.70
2015,06,29,00,46,19.60
2015,06,29,00,47,19.60
2015,06,29,00,48,19.60
2015,06,29,00,49,19.60
2015,06,29,00,50,19.60
2015,06,29,00,51,19.60
2015,06,29,00,52,19.60
2015,06,29,00,53,19.60
2015,06,29,00,54,19.70
2015,06,29,00,55,19.70
2015,06,29,00,56,19.60
2015,06,29,00,57,19.70
2015,06,29,00,58,19.70
2015,06,29,00,59,19.70
2015,06,29,01,00,19.70
2015,06,29,01,01,19.70
2015,06,29,01,02,19.70
2015,06,29,01,03,19.70
2015,06,29,01,04,19.70
2015,06,29,01,05,19.70
2015,06,29,01,06,19.70
2015,06,29,01,07,19.70
2015,06,29,01,08,19.70
2015,06,29,01,09,19.70
2015,06,29,01,10,19.70
2015,06,29,01,11,19.70
2015,06,29,01,12,19.70
2015,06,29,01,13,19.70
2015,06,29,01,14,19.70
2015,06,29,01,15,19.70
2015,06,29,01,16,19.70
2015,06,29,01,17,19.70
2015,06,29,01,18,19.70
2015,06,29,01,19,19.70
2015,06,29,01,20,19.70
2015,06,29,01,21,19.70
2015,06,29,01,22,19.70
2015,06,29,01,23,19.70
2015,06,29,01,24,19.70
2015,06,29,01,25,19.60
2015,06,29,01,26,19.60
2015,06,29,01,27,19.60
2015,06,29,01,28,19.60
2015,06,29,01,29,19.60
2015,06,29,01,30,19.60
2015,06,29,01,31,19.60
2015,06,29,01,32,19.60
2015,06,29,01,33,19.60
2015,06,29,01,34,19.60
2015,06,29,01,35,19.60
2015,06,29,01,36,19.60
2015,06,29,01,37,19.60
2015,06,29,01,38,19.50
2015,06,29,01,39,19.50
2015,06,29,01,40,19.50
2015,06,29,01,41,19.50
2015,06,29,01,42,19.50
2015,06,29,01,43,19.50
2015,06,29,01,44,19.50
2015,06,29,01,45,19.50
2015,06,29,01,46,19.50
2015,06,29,01,47,19.50
2015,06,29,01,48,19.50
2015,06,29,01,49,19.40
2015,06,29,01,50,19.40
2015,06,29,01,51,19.40
2015,06,29,01,52,19.40
2015,06,29,01,53,19.40
2015,06,29,01,54,19.40
2015,06,29,01,55,19.50
2015,06,29,01,56,19.50
2015,06,29,01,57,19.50
2015,06,29,01,58,19.50
2015,06,29,01,59,19.50
2015,06,29,02,00,19.50
2015,06,29,02,01,19.50
2015,06,29,02,02,19.50
2015,06,29,02,03,19.50
2015,06,29,02,04,19.50
2015,06,29,02,05,19.40
2015,06,29,02,06,19.40
2015,06,29,02,07,19.40
2015,06,29,02,08,19.40
2015,06,29,02,09,19.40
2015,06,29,02,10,19.30
2015,06,29,02,11,19.30
2015,06,29,02,12,19.30
2015,06,29,02,13,19.30
2015,06,29,02,14,19.30
2015,06,29,02,15,19.30
2015,06,29,02,16,19.30
2015,06,29,02,17,19.20
2015,06,29,02,18,19.20
2015,06,29,02,19,19.20
2015,06,29,02,20,19.20
2015,06,29,02,21,19.20
2015,06,29,02,22,19.10
2015,06,29,02,23,19.10
2015,06,29,02,24,19.10
2015,06,29,02,25,19.10
2015,06,29,02,26,19.10
2015,06,29,02,27,19.00
2015,06,29,02,28,19.00
2015,06,29,02,29,19.00
2015,06,29,02,30,19.00
2015,06,29,02,31,19.00
2015,06,29,02,32,19.00
2015,06,29,02,33,19.00
2015,06,29,02,34,19.00
2015,06,29,02,35,19.00
2015,06,29,02,36,19.00
2015,06,29,02,37,19.00
2015,06,29,02,38,19.00
2015,06,29,02,39,19.00
2015,06,29,02,40,19.00
2015,06,29,02,41,19.00
2015,06,29,02,42,19.00
2015,06,29,02,43,19.00
2015,06,29,02,44,19.00
2015,06,29,02,45,19.00
2015,06,29,02,46,19.00
2015,06,29,02,47,18.90
2015,06,29,02,48,18.90
2015,06,29,02,49,18.90
2015,06,29,02,50,18.90
2015,06,29,02,51,18.90
2015,06,29,02,52,18.90
2015,06,29,02,53,18.90
2015,06,29,02,54,18.90
2015,06,29,02,55,18.90
2015,06,29,02,56,18.90
2015,06,29,02,57,18.90
2015,06,29,02,58,18.90
2015,06,29,02,59,18.90
2015,06,29,03,00,18.80
2015,06,29,03,01,18.80
2015,06,29,03,02,18.80
2015,06,29,03,03,18.80
2015,06,29,03,04,18.80
2015,06,29,03,05,18.80
2015,06,29,03,06,18.80
2015,06,29,03,07,18.80
2015,06,29,03,08,18.80
2015,06,29,03,09,18.80
2015,06,29,03,10,18.70
2015,06,29,03,11,18.70
2015,06,29,03,12,18.70
2015,06,29,03,13,18.70
2015,06,29,03,14,18.70
2015,06,29,03,15,18.70
2015,06,29,03,16,18.70
2015,06,29,03,17,18.70
2015,06,29,03,18,18.70
2015,06,29,03,19,18.70
2015,06,29,03,20,18.70
2015,06,29,03,21,18.70
2015,06,29,03,22,18.70
2015,06,29,03,23,18.80
2015,06,29,03,24,18.80
2015,06,29,03,25,18.80
2015,06,29,03,26,18.80
2015,06,29,03,27,18.80
2015,06,29,03,28,18.80
2015,06,29,03,29,18.90
2015,06,29,03,30,18.90
2015,06,29,03,31,18.90
2015,06,29,03,32,18.90
2015,06,29,03,33,19.00
2015,06,29,03,34,19.00
2015,06,29,03,35,19.10
2015,06,29,03,36,19.10
2015,06,29,03,37,19.10
2015,06,29,03,38,19.10
2015,06,29,03,39,19.20
2015,06,29,03,40,19.20
2015,06,29,03,41,19.20
2015,06,29,03,42,19.20
2015,06,29,03,43,19.20
2015,06,29,03,44,19.20
2015,06,29,03,45,19.20
2015,06,29,03,46,19.20
2015,06,29,03,47,19.20
2015,06,29,03,48,19.20
2015,06,29,03,49,19.20
2015,06,29,03,50,19.20
2015,06,29,03,51,19.20
2015,06,29,03,52,19.20
2015,06,29,03,53,19.20
2015,06,29,03,54,19.20
2015,06,29,03,55,19.20
2015,06,29,03,56,19.20
2015,06,29,03,57,19.20
2015,06,29,03,58,19.20
2015,06,29,03,59,19.20
2015,06,29,04,00,19.20
2015,06,29,04,01,19.20
2015,06,29,04,02,19.20
2015,06,29,04,03,19.20
2015,06,29,04,04,19.20
2015,06,29,04,05,19.20
2015,06,29,04,06,19.20
2015,06,29,04,07,19.20
2015,06,29,04,08,19.20
2015,06,29,04,09,19.20
2015,06,29,04,10,19.20
2015,06,29,04,11,19.20
2015,06,29,04,12,19.20
2015,06,29,04,13,19.20
2015,06,29,04,14,19.30
2015,06,29,04,15,19.30
2015,06,29,04,16,19.30
2015,06,29,04,17,19.30
2015,06,29,04,18,19.20
2015,06,29,04,19,19.20
2015,06,29,04,20,19.20
2015,06,29,04,21,19.20
2015,06,29,04,22,19.20
2015,06,29,04,23,19.20
2015,06,29,04,24,19.20
2015,06,29,04,25,19.20
2015,06,29,04,26,19.20
2015,06,29,04,27,19.20
2015,06,29,04,28,19.30
2015,06,29,04,29,19.30
2015,06,29,04,30,19.30
2015,06,29,04,31,19.30
2015,06,29,04,32,19.40
2015,06,29,04,33,19.40
2015,06,29,04,34,19.40
2015,06,29,04,35,19.40
2015,06,29,04,36,19.40
2015,06,29,04,37,19.40
2015,06,29,04,38,19.40
2015,06,29,04,39,19.40
2015,06,29,04,40,19.50
2015,06,29,04,41,19.50
2015,06,29,04,42,19.50
2015,06,29,04,43,19.40
2015,06,29,04,44,19.40
2015,06,29,04,45,19.40
2015,06,29,04,46,19.40
2015,06,29,04,47,19.40
2015,06,29,04,48,19.40
2015,06,29,04,49,19.40
2015,06,29,04,50,19.40
2015,06,29,04,51,19.50
2015,06,29,04,52,19.50
2015,06,29,04,53,19.50
2015,06,29,04,54,19.50
2015,06,29,04,55,19.60
2015,06,29,04,56,19.60
2015,06,29,04,57,19.60
2015,06,29,04,58,19.60
2015,06,29,04,59,19.60
2015,06,29,05,00,19.50
2015,06,29,05,01,19.50
2015,06,29,05,02,19.50
2015,06,29,05,03,19.50
2015,06,29,05,04,19.40
2015,06,29,05,05,19.40
2015,06,29,05,06,19.40
2015,06,29,05,07,19.40
2015,06,29,05,08,19.40
2015,06,29,05,09,19.40
2015,06,29,05,10,19.30
2015,06,29,05,11,19.30
2015,06,29,05,12,19.30
2015,06,29,05,13,19.30
2015,06,29,05,14,19.30
2015,06,29,05,15,19.30
2015,06,29,05,16,19.30
2015,06,29,05,17,19.20
2015,06,29,05,18,19.20
2015,06,29,05,19,19.20
2015,06,29,05,20,19.20
2015,06,29,05,21,19.20
2015,06,29,05,22,19.10
2015,06,29,05,23,19.10
2015,06,29,05,24,19.10
2015,06,29,05,25,19.10
2015,06,29,05,26,19.10
2015,06,29,05,27,19.10
2015,06,29,05,28,19.10
2015,06,29,05,29,19.10
2015,06,29,05,30,19.00
2015,06,29,05,31,19.00
2015,06,29,05,32,19.00
2015,06,29,05,33,18.90
2015,06,29,05,34,18.90
2015,06,29,05,35,18.90
2015,06,29,05,36,18.90
2015,06,29,05,37,18.90
2015,06,29,05,38,18.90
2015,06,29,05,39,18.90
2015,06,29,05,40,18.90
2015,06,29,05,41,19.00
2015,06,29,05,42,19.00
2015,06,29,05,43,19.00
2015,06,29,05,44,19.00
2015,06,29,05,45,19.00
2015,06,29,05,46,19.00
2015,06,29,05,47,19.00
2015,06,29,05,48,19.00
2015,06,29,05,49,19.00
2015,06,29,05,50,19.00
2015,06,29,05,51,19.00
2015,06,29,05,52,19.00
2015,06,29,05,53,19.00
2015,06,29,05,54,19.00
2015,06,29,05,55,19.00
2015,06,29,05,56,19.00
2015,06,29,05,57,19.00
2015,06,29,05,58,19.00
2015,06,29,05,59,19.00
2015,06,29,06,00,19.00
2015,06,29,06,01,19.00
2015,06,29,06,02,19.00
2015,06,29,06,03,19.00
2015,06,29,06,04,19.00
2015,06,29,06,05,19.00
2015,06,29,06,06,19.00
2015,06,29,06,07,19.00
2015,06,29,06,08,19.00
2015,06,29,06,09,19.00
2015,06,29,06,10,19.00
2015,06,29,06,11,19.10
2015,06,29,06,12,19.10
2015,06,29,06,13,19.10
2015,06,29,06,14,19.10
2015,06,29,06,15,19.10
2015,06,29,06,16,19.10
2015,06,29,06,17,19.10
2015,06,29,06,18,19.10
2015,06,29,06,19,19.10
2015,06,29,06,20,19.10
2015,06,29,06,21,19.10
2015,06,29,06,22,19.10
2015,06,29,06,23,19.10
2015,06,29,06,24,19.00
2015,06,29,06,25,19.00
2015,06,29,06,26,18.90
2015,06,29,06,27,18.80
2015,06,29,06,28,18.80
2015,06,29,06,29,18.70
2015,06,29,06,30,18.70
2015,06,29,06,31,18.60
2015,06,29,06,32,18.60
2015,06,29,06,33,18.50
2015,06,29,06,34,18.50
2015,06,29,06,35,18.50
2015,06,29,06,36,18.50
2015,06,29,06,37,18.50
2015,06,29,06,38,18.50
2015,06,29,06,39,18.50
2015,06,29,06,40,18.50
2015,06,29,06,41,18.60
2015,06,29,06,42,18.60
2015,06,29,06,43,18.60
2015,06,29,06,44,18.60
2015,06,29,06,45,18.70
2015,06,29,06,46,18.70
2015,06,29,06,47,18.70
2015,06,29,06,48,18.70
2015,06,29,06,49,18.70
2015,06,29,06,50,18.70
2015,06,29,06,51,18.70
2015,06,29,06,52,18.70
2015,06,29,06,53,18.70
2015,06,29,06,54,18.70
2015,06,29,06,55,18.70
2015,06,29,06,56,18.70
2015,06,29,06,57,18.70
2015,06,29,06,58,18.70
2015,06,29,06,59,18.70
2015,06,29,07,00,18.80
2015,06,29,07,01,18.80
2015,06,29,07,02,18.80
2015,06,29,07,03,18.80
2015,06,29,07,04,18.80
2015,06,29,07,05,18.80
2015,06,29,07,06,18.80
2015,06,29,07,07,18.80
2015,06,29,07,08,18.80
2015,06,29,07,09,18.80
2015,06,29,07,10,18.90
2015,06,29,07,11,18.90
2015,06,29,07,12,18.90
2015,06,29,07,13,18.90
2015,06,29,07,14,18.90
2015,06,29,07,15,18.90
2015,06,29,07,16,19.00
2015,06,29,07,17,19.00
2015,06,29,07,18,19.10
2015,06,29,07,19,19.10
2015,06,29,07,20,19.20
2015,06,29,07,21,19.30
2015,06,29,07,22,19.30
2015,06,29,07,23,19.40
2015,06,29,07,24,19.50
2015,06,29,07,25,19.60
2015,06,29,07,26,19.60
2015,06,29,07,27,19.70
2015,06,29,07,28,19.80
2015,06,29,07,29,19.80
2015,06,29,07,30,19.90
2015,06,29,07,31,20.00
2015,06,29,07,32,20.00
2015,06,29,07,33,20.10
2015,06,29,07,34,20.10
2015,06,29,07,35,20.20
2015,06,29,07,36,20.30
2015,06,29,07,37,20.30
2015,06,29,07,38,20.40
2015,06,29,07,39,20.50
2015,06,29,07,40,20.50
2015,06,29,07,41,20.60
2015,06,29,07,42,20.60
2015,06,29,07,43,20.70
2015,06,29,07,44,20.80
2015,06,29,07,45,20.80
2015,06,29,07,46,20.90
2015,06,29,07,47,20.90
2015,06,29,07,48,21.00
2015,06,29,07,49,21.00
2015,06,29,07,50,21.10
2015,06,29,07,51,21.10
2015,06,29,07,52,21.10
2015,06,29,07,53,21.20
2015,06,29,07,54,21.20
2015,06,29,07,55,21.20
2015,06,29,07,56,21.30
2015,06,29,07,57,21.30
2015,06,29,07,58,21.30
2015,06,29,07,59,21.30
2015,06,29,08,00,21.30
2015,06,29,08,01,21.30
2015,06,29,08,02,21.30
2015,06,29,08,03,21.30
2015,06,29,08,04,21.30
2015,06,29,08,05,21.30
2015,06,29,08,06,21.40
2015,06,29,08,07,21.40
2015,06,29,08,08,21.40
2015,06,29,08,09,21.50
2015,06,29,08,10,21.60
2015,06,29,08,11,21.60
2015,06,29,08,12,21.70
2015,06,29,08,13,21.80
2015,06,29,08,14,21.80
2015,06,29,08,15,21.90
2015,06,29,08,16,21.90
2015,06,29,08,17,22.00
2015,06,29,08,18,22.10
2015,06,29,08,19,22.20
2015,06,29,08,20,22.20
2015,06,29,08,21,22.30
2015,06,29,08,22,22.40
2015,06,29,08,23,22.50
2015,06,29,08,24,22.50
2015,06,29,08,25,22.60
2015,06,29,08,26,22.60
2015,06,29,08,27,22.70
2015,06,29,08,28,22.70
2015,06,29,08,29,22.70
2015,06,29,08,30,22.70
2015,06,29,08,31,22.70
2015,06,29,08,32,22.70
2015,06,29,08,33,22.70
2015,06,29,08,34,22.70
2015,06,29,08,35,22.80
2015,06,29,08,36,22.80
2015,06,29,08,37,22.80
2015,06,29,08,38,22.90
2015,06,29,08,39,23.00
2015,06,29,08,40,23.10
2015,06,29,08,41,23.20
2015,06,29,08,42,23.30
2015,06,29,08,43,23.40
2015,06,29,08,44,23.50
2015,06,29,08,45,23.60
2015,06,29,08,46,23.80
2015,06,29,08,47,23.90
2015,06,29,08,48,24.00
2015,06,29,08,49,24.20
2015,06,29,08,50,24.30
2015,06,29,08,51,24.40
2015,06,29,08,52,24.40
2015,06,29,08,53,24.40
2015,06,29,08,54,24.30
2015,06,29,08,55,24.20
2015,06,29,08,56,24.00
2015,06,29,08,57,23.90
2015,06,29,08,58,23.70
2015,06,29,08,59,23.60
2015,06,29,09,00,23.40
2015,06,29,09,01,23.30
2015,06,29,09,02,23.10
2015,06,29,09,03,23.00
2015,06,29,09,04,22.80
2015,06,29,09,05,22.60
2015,06,29,09,06,22.50
2015,06,29,09,07,22.40
2015,06,29,09,08,22.30
2015,06,29,09,09,22.20
2015,06,29,09,10,22.10
2015,06,29,09,11,22.00
2015,06,29,09,12,21.90
2015,06,29,09,13,21.80
2015,06,29,09,14,21.60
2015,06,29,09,15,21.50
2015,06,29,09,16,21.50
2015,06,29,09,17,21.40
2015,06,29,09,18,21.30
2015,06,29,09,19,21.30
2015,06,29,09,20,21.30
2015,06,29,09,21,21.30
2015,06,29,09,22,21.40
2015,06,29,09,23,21.40
2015,06,29,09,24,21.40
2015,06,29,09,25,21.50
2015,06,29,09,26,21.60
2015,06,29,09,27,21.60
2015,06,29,09,28,21.60
2015,06,29,09,29,21.60
2015,06,29,09,30,21.60
2015,06,29,09,31,21.70
2015,06,29,09,32,21.70
2015,06,29,09,33,21.70
2015,06,29,09,34,21.80
2015,06,29,09,35,21.80
2015,06,29,09,36,21.80
2015,06,29,09,37,21.90
2015,06,29,09,38,22.00
2015,06,29,09,39,22.00
2015,06,29,09,40,22.00
2015,06,29,09,41,22.10
2015,06,29,09,42,22.10
2015,06,29,09,43,22.20
2015,06,29,09,44,22.30
2015,06,29,09,45,22.30
2015,06,29,09,46,22.40
2015,06,29,09,47,22.50
2015,06,29,09,48,22.50
2015,06,29,09,49,22.60
2015,06,29,09,50,22.60
2015,06,29,09,51,22.60
2015,06,29,09,52,22.60
2015,06,29,09,53,22.70
2015,06,29,09,54,22.70
2015,06,29,09,55,22.80
2015,06,29,09,56,22.80
2015,06,29,09,57,22.90
2015,06,29,09,58,23.00
2015,06,29,09,59,23.00
2015,06,29,10,00,23.10
2015,06,29,10,01,23.20
2015,06,29,10,02,23.20
2015,06,29,10,03,23.30
2015,06,29,10,04,23.40
2015,06,29,10,05,23.40
2015,06,29,10,06,23.50
2015,06,29,10,07,23.50
2015,06,29,10,08,23.60
2015,06,29,10,09,23.60
2015,06,29,10,10,23.70
2015,06,29,10,11,23.70
2015,06,29,10,12,23.80
2015,06,29,10,13,23.80
2015,06,29,10,14,23.90
2015,06,29,10,15,24.00
2015,06,29,10,16,24.10
2015,06,29,10,17,24.10
2015,06,29,10,18,24.20
2015,06,29,10,19,24.30
2015,06,29,10,20,24.30
2015,06,29,10,21,24.40
2015,06,29,10,22,24.50
2015,06,29,10,23,24.60
2015,06,29,10,24,24.70
2015,06,29,10,25,24.80
2015,06,29,10,26,24.90
2015,06,29,10,27,25.00
2015,06,29,10,28,25.00
2015,06,29,10,29,25.10
2015,06,29,10,30,25.10
2015,06,29,10,31,25.20
2015,06,29,10,32,25.30
2015,06,29,10,33,25.40
2015,06,29,10,34,25.40
2015,06,29,10,35,25.50
2015,06,29,10,36,25.50
2015,06,29,10,37,25.60
2015,06,29,10,38,25.70
2015,06,29,10,39,25.80
2015,06,29,10,40,25.80
2015,06,29,10,41,25.80
2015,06,29,10,42,25.90
2015,06,29,10,43,25.90
2015,06,29,10,44,26.00
2015,06,29,10,45,26.10
2015,06,29,10,46,26.20
2015,06,29,10,47,26.30
2015,06,29,10,48,26.30
2015,06,29,10,49,26.30
2015,06,29,10,50,26.30
2015,06,29,10,51,26.20
2015,06,29,10,52,26.20
2015,06,29,10,53,26.20
2015,06,29,10,54,26.20
2015,06,29,10,55,26.30
2015,06,29,10,56,26.30
2015,06,29,10,57,26.40
2015,06,29,10,58,26.50
2015,06,29,10,59,26.60
2015,06,29,11,00,26.70
2015,06,29,11,01,26.70
2015,06,29,11,02,26.80
2015,06,29,11,03,26.80
2015,06,29,11,04,26.80
2015,06,29,11,05,26.80
2015,06,29,11,06,26.90
2015,06,29,11,07,27.00
2015,06,29,11,08,27.00
2015,06,29,11,09,27.10
2015,06,29,11,10,27.10
2015,06,29,11,11,27.20
2015,06,29,11,12,27.20
2015,06,29,11,13,27.30
2015,06,29,11,14,27.30
2015,06,29,11,15,27.30
2015,06,29,11,16,27.30
2015,06,29,11,17,27.20
2015,06,29,11,18,27.10
2015,06,29,11,19,27.10
2015,06,29,11,20,27.10
2015,06,29,11,21,27.10
2015,06,29,11,22,27.10
2015,06,29,11,23,27.10
2015,06,29,11,24,27.10
2015,06,29,11,25,27.10
2015,06,29,11,26,27.10
2015,06,29,11,27,27.10
2015,06,29,11,28,26.90
2015,06,29,11,29,26.80
2015,06,29,11,30,26.70
2015,06,29,11,31,26.60
2015,06,29,11,32,26.50
2015,06,29,11,33,26.50
2015,06,29,11,34,26.40
2015,06,29,11,35,26.40
2015,06,29,11,36,26.40
2015,06,29,11,37,26.30
2015,06,29,11,38,26.30
2015,06,29,11,39,26.20
2015,06,29,11,40,26.10
2015,06,29,11,41,26.00
2015,06,29,11,42,25.90
2015,06,29,11,43,25.70
2015,06,29,11,44,25.70
2015,06,29,11,45,25.70
2015,06,29,11,46,25.60
2015,06,29,11,47,25.60
2015,06,29,11,48,25.50
2015,06,29,11,49,25.50
2015,06,29,11,50,25.50
2015,06,29,11,51,25.40
2015,06,29,11,52,25.50
2015,06,29,11,53,25.50
2015,06,29,11,54,25.40
2015,06,29,11,55,25.40
2015,06,29,11,56,25.30
2015,06,29,11,57,25.30
2015,06,29,11,58,25.40
2015,06,29,11,59,25.40
2015,06,29,12,00,25.40
2015,06,29,12,01,25.50
2015,06,29,12,02,25.50
2015,06,29,12,03,25.60
2015,06,29,12,04,25.60
2015,06,29,12,05,25.60
2015,06,29,12,06,25.70
2015,06,29,12,07,25.70
2015,06,29,12,08,25.80
2015,06,29,12,09,25.90
2015,06,29,12,10,26.00
2015,06,29,12,11,26.10
2015,06,29,12,12,26.20
2015,06,29,12,13,26.30
2015,06,29,12,14,26.40
2015,06,29,12,15,26.40
2015,06,29,12,16,26.40
2015,06,29,12,17,26.40
2015,06,29,12,18,26.40
2015,06,29,12,19,26.50
2015,06,29,12,20,26.60
2015,06,29,12,21,26.70
2015,06,29,12,22,26.70
2015,06,29,12,23,26.80
2015,06,29,12,24,26.80
2015,06,29,12,25,26.90
2015,06,29,12,26,27.00
2015,06,29,12,27,27.10
2015,06,29,12,28,27.20
2015,06,29,12,29,27.30
2015,06,29,12,30,27.30
2015,06,29,12,31,27.40
2015,06,29,12,32,27.40
2015,06,29,12,33,27.30
2015,06,29,12,34,27.30
2015,06,29,12,35,27.30
2015,06,29,12,36,27.20
2015,06,29,12,37,27.20
2015,06,29,12,38,27.20
2015,06,29,12,39,27.20
2015,06,29,12,40,27.30
2015,06,29,12,41,27.30
2015,06,29,12,42,27.30
2015,06,29,12,43,27.40
2015,06,29,12,44,27.40
2015,06,29,12,45,27.40
2015,06,29,12,46,27.40
2015,06,29,12,47,27.40
2015,06,29,12,48,27.50
2015,06,29,12,49,27.50
2015,06,29,12,50,27.50
2015,06,29,12,51,27.60
2015,06,29,12,52,27.50
2015,06,29,12,53,27.50
2015,06,29,12,54,27.50
2015,06,29,12,55,27.50
2015,06,29,12,56,27.50
2015,06,29,12,57,27.50
2015,06,29,12,58,27.40
2015,06,29,12,59,27.30
2015,06,29,13,00,27.30
2015,06,29,13,01,27.20
2015,06,29,13,02,27.20
2015,06,29,13,03,27.10
2015,06,29,13,04,27.00
2015,06,29,13,05,27.00
2015,06,29,13,06,27.00
2015,06,29,13,07,27.00
2015,06,29,13,08,27.00
2015,06,29,13,09,27.10
2015,06,29,13,10,27.20
2015,06,29,13,11,27.30
2015,06,29,13,12,27.30
2015,06,29,13,13,27.40
2015,06,29,13,14,27.30
2015,06,29,13,15,27.30
2015,06,29,13,16,27.30
2015,06,29,13,17,27.30
2015,06,29,13,18,27.30
2015,06,29,13,19,27.40
2015,06,29,13,20,27.50
2015,06,29,13,21,27.50
2015,06,29,13,22,27.40
2015,06,29,13,23,27.30
2015,06,29,13,24,27.30
2015,06,29,13,25,27.30
2015,06,29,13,26,27.40
2015,06,29,13,27,27.40
2015,06,29,13,28,27.40
2015,06,29,13,29,27.40
2015,06,29,13,30,27.50
2015,06,29,13,31,27.50
2015,06,29,13,32,27.50
2015,06,29,13,33,27.50
2015,06,29,13,34,27.50
2015,06,29,13,35,27.40
2015,06,29,13,36,27.40
2015,06,29,13,37,27.50
2015,06,29,13,38,27.60
2015,06,29,13,39,27.60
2015,06,29,13,40,27.70
2015,06,29,13,41,27.70
2015,06,29,13,42,27.80
2015,06,29,13,43,27.80
2015,06,29,13,44,27.80
2015,06,29,13,45,27.80
2015,06,29,13,46,27.80
2015,06,29,13,47,27.90
2015,06,29,13,48,28.00
2015,06,29,13,49,28.10
2015,06,29,13,50,28.10
2015,06,29,13,51,28.10
2015,06,29,13,52,28.10
2015,06,29,13,53,28.20
2015,06,29,13,54,28.30
2015,06,29,13,55,28.30
2015,06,29,13,56,28.40
2015,06,29,13,57,28.40
2015,06,29,13,58,28.30
2015,06,29,13,59,28.30
2015,06,29,14,00,28.30
2015,06,29,14,01,28.30
2015,06,29,14,02,28.40
2015,06,29,14,03,28.50
2015,06,29,14,04,28.60
2015,06,29,14,05,28.70
2015,06,29,14,06,28.70
2015,06,29,14,07,28.70
2015,06,29,14,08,28.60
2015,06,29,14,09,28.50
2015,06,29,14,10,28.40
2015,06,29,14,11,28.40
2015,06,29,14,12,28.50
2015,06,29,14,13,28.50
2015,06,29,14,14,28.60
2015,06,29,14,15,28.70
2015,06,29,14,16,28.80
2015,06,29,14,17,29.00
2015,06,29,14,18,29.20
2015,06,29,14,19,29.30
2015,06,29,14,20,29.40
2015,06,29,14,21,29.50
2015,06,29,14,22,29.70
2015,06,29,14,23,29.80
2015,06,29,14,24,29.80
2015,06,29,14,25,29.90
2015,06,29,14,26,30.00
2015,06,29,14,27,30.10
2015,06,29,14,28,30.30
2015,06,29,14,29,30.20
2015,06,29,14,30,30.30
2015,06,29,14,31,30.20
2015,06,29,14,32,30.20
2015,06,29,14,33,30.30
2015,06,29,14,34,30.30
2015,06,29,14,35,30.30
2015,06,29,14,36,30.30
2015,06,29,14,37,30.30
2015,06,29,14,38,30.20
2015,06,29,14,39,30.10
2015,06,29,14,40,30.10
2015,06,29,14,41,30.20
2015,06,29,14,42,30.30
2015,06,29,14,43,30.40
2015,06,29,14,44,30.50
2015,06,29,14,45,30.50
2015,06,29,14,46,30.60
2015,06,29,14,47,30.70
2015,06,29,14,48,30.80
2015,06,29,14,49,30.80
2015,06,29,14,50,30.80
2015,06,29,14,51,31.00
2015,06,29,14,52,31.00
2015,06,29,14,53,31.00
2015,06,29,14,54,31.00
2015,06,29,14,55,31.00
2015,06,29,14,56,31.00
2015,06,29,14,57,31.00
2015,06,29,14,58,31.00
2015,06,29,14,59,31.10
2015,06,29,15,00,31.10
2015,06,29,15,01,31.20
2015,06,29,15,02,31.20
2015,06,29,15,03,31.20
2015,06,29,15,04,31.20
2015,06,29,15,05,31.20
2015,06,29,15,06,31.20
2015,06,29,15,07,31.20
2015,06,29,15,08,31.20
2015,06,29,15,09,31.30
2015,06,29,15,10,31.30
2015,06,29,15,11,31.30
2015,06,29,15,12,31.20
2015,06,29,15,13,31.30
2015,06,29,15,14,31.30
2015,06,29,15,15,31.40
2015,06,29,15,16,31.40
2015,06,29,15,17,31.40
2015,06,29,15,18,31.40
2015,06,29,15,19,31.40
2015,06,29,15,20,31.30
2015,06,29,15,21,31.30
2015,06,29,15,22,31.20
2015,06,29,15,23,31.20
2015,06,29,15,24,31.20
2015,06,29,15,25,31.30
2015,06,29,15,26,31.40
2015,06,29,15,27,31.40
2015,06,29,15,28,31.40
2015,06,29,15,29,31.40
2015,06,29,15,30,31.40
2015,06,29,15,31,31.40
2015,06,29,15,32,31.40
2015,06,29,15,33,31.30
2015,06,29,15,34,31.30
2015,06,29,15,35,31.30
2015,06,29,15,36,31.30
2015,06,29,15,37,31.20
2015,06,29,15,38,31.20
2015,06,29,15,39,31.20
2015,06,29,15,40,31.30
2015,06,29,15,41,31.30
2015,06,29,15,42,31.30
2015,06,29,15,43,31.30
2015,06,29,15,44,31.40
2015,06,29,15,45,31.50
2015,06,29,15,46,31.60
2015,06,29,15,47,31.60
2015,06,29,15,48,31.60
2015,06,29,15,49,31.50
2015,06,29,15,50,31.50
2015,06,29,15,51,31.50
2015,06,29,15,52,31.50
2015,06,29,15,53,31.50
2015,06,29,15,54,31.50
2015,06,29,15,55,31.60
2015,06,29,15,56,31.50
2015,06,29,15,57,31.50
2015,06,29,15,58,31.50
2015,06,29,15,59,31.60
2015,06,29,16,00,31.60
2015,06,29,16,01,31.70
2015,06,29,16,02,31.70
2015,06,29,16,03,31.60
2015,06,29,16,04,31.40
2015,06,29,16,05,31.30
2015,06,29,16,06,31.10
2015,06,29,16,07,30.90
2015,06,29,16,08,30.80
2015,06,29,16,09,30.80
2015,06,29,16,10,30.80
2015,06,29,16,11,30.90
2015,06,29,16,12,31.00
2015,06,29,16,13,31.10
2015,06,29,16,14,31.10
2015,06,29,16,15,31.20
2015,06,29,16,16,31.20
2015,06,29,16,17,31.20
2015,06,29,16,18,31.30
2015,06,29,16,19,31.20
2015,06,29,16,20,31.10
2015,06,29,16,21,31.10
2015,06,29,16,22,31.10
2015,06,29,16,23,31.00
2015,06,29,16,24,31.00
2015,06,29,16,25,31.00
2015,06,29,16,26,30.80
2015,06,29,16,27,30.70
2015,06,29,16,28,30.70
2015,06,29,16,29,30.60
2015,06,29,16,30,30.60
2015,06,29,16,31,30.60
2015,06,29,16,32,30.70
2015,06,29,16,33,30.70
2015,06,29,16,34,30.80
2015,06,29,16,35,30.80
2015,06,29,16,36,30.80
2015,06,29,16,37,30.80
2015,06,29,16,38,30.80
2015,06,29,16,39,30.80
2015,06,29,16,40,30.70
2015,06,29,16,41,30.70
2015,06,29,16,42,30.60
2015,06,29,16,43,30.60
2015,06,29,16,44,30.60
2015,06,29,16,45,30.70
2015,06,29,16,46,30.70
2015,06,29,16,47,30.70
2015,06,29,16,48,30.60
2015,06,29,16,49,30.50
2015,06,29,16,50,30.50
2015,06,29,16,51,30.40
2015,06,29,16,52,30.40
2015,06,29,16,53,30.50
2015,06,29,16,54,30.60
2015,06,29,16,55,30.70
2015,06,29,16,56,30.70
2015,06,29,16,57,30.70
2015,06,29,16,58,30.80
2015,06,29,16,59,30.80
2015,06,29,17,00,30.70
2015,06,29,17,01,30.70
2015,06,29,17,02,30.70
2015,06,29,17,03,30.80
2015,06,29,17,04,30.80
2015,06,29,17,05,30.70
2015,06,29,17,06,30.60
2015,06,29,17,07,30.60
2015,06,29,17,08,30.60
2015,06,29,17,09,30.70
2015,06,29,17,10,30.80
2015,06,29,17,11,30.80
2015,06,29,17,12,30.70
2015,06,29,17,13,30.70
2015,06,29,17,14,30.80
2015,06,29,17,15,30.80
2015,06,29,17,16,30.70
2015,06,29,17,17,30.60
2015,06,29,17,18,30.50
2015,06,29,17,19,30.40